{"data":{"norad_id":54065,"epoch":"2026-09-20T06:24:36.785952Z","epoch_age_seconds":106552,"freshness":"FRESH","line1":"1 54065U 22136Q   26263.26709243  .00001511  00000+0  54216-4 0  9995","line2":"2 54065  53.1607 179.0882 0001374  91.2980 268.8181 15.35401055216375","mean_motion":15.35401055,"eccentricity":0.0001374,"inclination_deg":53.1607,"raan_deg":179.0882,"arg_perigee_deg":91.298,"mean_anomaly_deg":268.8181,"bstar":5.4216e-5,"rev_number":21637,"period_min":93.786570962073,"perigee_km":458.78998760504,"apogee_km":460.66903332212,"semimajor_km":6837.8665104636,"source":"CELESTRAK","updated_at":"2026-09-21T09:00:33.078201Z"}}